Погода в Баранове

Россия / Смоленская область     55°07′11″N   33°16′38″E
темп.,
°C
ветер,
м/с
пор.,
м/с
влажн.,
%
обл.,
%
осадки,
мм/ч
давл.,
гПа
погр.,
м
29 июня, ср
ср2900:00+17в4107579 0.0 1021211
03:00+16в3872100 0.0 1021194
06:00+16в3877100 0.0 1021199
09:00+19вюв4672100 0.0 1021334
12:00+22в335827 0.0 1021949
15:00+24в235282 0.0 10201317
18:00+24всв226199 0.0 10191200
21:00+18в358227 0.2 101978
30 июня, чт
чт3000:00+18в2265100 0.0 102053
03:00+14вюв22860 0.0 102013
06:00+15в11850 0.0 102029
09:00+19св11670 0.0 1020429
12:00+22ссв34522 0.0 10201254
15:00+23ссв44465 0.0 10201167
18:00+22ссв35605 0.0 1019404
21:00+17всв22708 0.0 102011
1 июля, пт
пт100:00+15ссз11664 0.0 102011
03:00+13с22745 0.0 102111
06:00+14ссз23795 0.0 102152
09:00+20с36620 0.0 1022386
12:00+24ссв46530 0.0 10211246
15:00+25ссв45540 0.0 10211490
18:00+25ссв246119 0.0 1021842
21:00+18юв357965 0.0 102175
2 июля, сб
сб200:00+16юв22715 0.0 102311
03:00+14ююв22725 0.0 102311
06:00+15ю117723 0.0 102312
09:00+20вюв116442 0.0 1023307
12:00+24в115556 0.0 1022794
15:00+26с2250100 0.0 10211021
18:00+25вюв0065100 0.0 1020220
21:00+21зюз2280100 0.0 102016
3 июля, вс
вс300:00+18зсз3489100 0.0 101969
03:00+17зсз3487100 0.0 101966
06:00+18зсз2586100 0.0 1019114
09:00+23зсз3468100 0.0 1019379
12:00+26зсз335290 0.0 10181330
15:00+28з23448 0.0 10172075
18:00+26зюз58605 0.0 1016438
21:00+21з49785 0.0 1016176